DW3370 Weather Reports


time (UTC)temp
C
wind
direction
speed
KPH
gust
KPH
rain 1hr
cm
rain 24hr
cm
rain mn
cm
humidity
%
barometer
mb
20260504060107 1 0 0.0 0.0 0.00 0.00 0.00 87 1014.9
20260504050119 2 0 0.0 0.0 0.00 0.00 0.00 86 1015.0
20260504044553 2 0 0.0 0.0 0.00 0.00 0.00 85 1015.2
20260504043100 2 0 0.0 0.0 0.00 0.00 0.00 83 1015.0
20260504041557 2 0 0.0 0.0 0.00 0.00 0.00 83 1015.0
20260504040105 2 0 0.0 0.0 0.00 0.00 0.00 83 1014.8
20260504034603 3 0 0.0 0.0 0.00 0.00 0.00 80 1014.9
20260504033058 3 0 0.0 0.0 0.00 0.00 0.00 80 1015.0
20260504031557 3 0 0.0 0.0 0.00 0.00 0.00 79 1014.7
20260504030053 4 0 0.0 0.0 0.00 0.00 0.00 77 1014.6
20260504024557 4 0 0.0 0.0 0.00 0.00 0.00 75 1014.6
20260504023055 5 0 0.0 0.0 0.00 0.00 0.00 73 1014.5
20260504021552 5 0 0.0 0.0 0.00 0.00 0.00 74 1014.3
20260504020104 6 0 0.0 0.0 0.00 0.00 0.00 69 1014.4
20260504014605 6 0 0.0 0.0 0.00 0.00 0.00 66 1014.3
20260504013052 7 0 0.0 0.0 0.00 0.00 0.00 62 1014.2
20260504011554 7 0 0.0 0.0 0.00 0.00 0.00 59 1014.1
20260504010056 8 0 0.0 0.0 0.00 0.00 0.00 53 1014.0
20260504004551 10 0 0.0 0.0 0.00 0.00 0.00 46 1014.0
20260504003054 11 0 0.0 0.0 0.00 0.00 0.00 44 1013.9
20260504001553 11 248 1.6 3.2 0.00 0.00 0.00 43 1013.6
20260504000058 12 254 0.0 6.4 0.00 0.00 0.00 42 1013.5
20260503234555 12 309 0.0 6.4 0.00 0.00 0.00 42 1013.4
20260503233052 12 279 0.0 6.4 0.00 0.00 0.00 41 1013.3
20260503231552 13 290 1.6 19.3 0.00 0.00 0.00 38 1013.0
20260503230113 13 188 3.2 14.5 0.00 0.00 0.00 38 1013.1
20260503224604 13 279 3.2 14.5 0.00 0.00 0.00 38 1013.2
20260503223055 14 278 3.2 14.5 0.00 0.00 0.00 36 1013.3
20260503221550 14 306 4.8 12.9 0.00 0.00 0.00 37 1013.2
20260503220054 14 313 4.8 20.9 0.00 0.00 0.00 36 1013.4
20260503214557 15 295 6.4 16.1 0.00 0.00 0.00 35 1013.4
20260503213101 15 252 6.4 16.1 0.00 0.00 0.00 35 1013.4
20260503211612 15 291 6.4 14.5 0.00 0.00 0.00 35 1013.3
20260503210055 15 329 1.6 12.9 0.00 0.00 0.00 41 1013.2
20260503204559 15 338 8.0 16.1 0.00 0.00 0.00 38 1013.3
20260503203059 13 250 6.4 22.5 0.00 0.00 0.00 36 1013.4
20260503201558 15 11 6.4 17.7 0.00 0.00 0.00 36 1013.2
20260503200108 15 269 4.8 24.1 0.00 0.00 0.00 35 1013.4
20260503194603 15 296 4.8 16.1 0.00 0.00 0.00 37 1013.7
20260503193105 13 309 6.4 20.9 0.00 0.00 0.00 32 1013.8
20260503191606 13 325 6.4 17.7 0.00 0.00 0.00 35 1014.0
20260503190054 14 239 3.2 19.3 0.00 0.00 0.00 38 1014.2
20260503184611 13 265 4.8 19.3 0.00 0.00 0.00 45 1014.2
20260503183053 13 316 6.4 22.5 0.00 0.00 0.00 41 1014.4
20260503181610 13 277 6.4 19.3 0.00 0.00 0.00 42 1014.5
20260503180116 13 263 6.4 17.7 0.00 0.00 0.00 43 1014.6
20260503173107 12 315 6.4 24.1 0.00 0.00 0.00 40 1014.6
20260503171555 12 273 6.4 12.9 0.00 0.00 0.00 44 1014.9
20260503150103 10 280 8.0 24.1 0.00 0.03 0.00 44 1015.8
20260503081553 2 0 0.0 0.0 0.00 0.03 0.00 78 1013.5
20260503080106 2 0 0.0 4.8 0.00 0.03 0.00 77 1013.4
20260503071600 2 288 1.6 8.0 0.00 0.05 0.00 77 1012.9